Powrót do katalogu

ARIANE 2 DEB

AktywnyGTO
NORAD 33558·DEBRIS·🇫🇷 France

Wystrzelony Jan 27, 1989 z Guiana Space Centre

Loading…

TLE

NieaktualneSource: Space-Track

Epoka: Aug 27, 2026, 07:51 UTC

1 33558U 89006BA  26239.32732191 -.00000013  00000-0  00000-0 0  9992
2 33558  10.5612 316.3484 6944810 303.9139   8.5721  2.21844079 22835

Śledź ARIANE 2 DEB w czasie rzeczywistym z AllMySat

Download on the App Store